Wind_Speed
12 12 11 11 11 11 12 12 12 11 12 12 12 12 12 12 12 12 13 13 14 14 14 14 15 15 14 13 13 13 13 13 13 14 14 13 13 13
13 13 12 12 12 12 12 12 12 12 13 13 12 12 12 12 12 13 13 14 14 14 15 15 15 15 14 14 13 12 13 13 14 14 14 14 13 14
14 14 13 13 13 13 13 13 13 13 13 13 13 13 13 13 13 14 14 14 15 15 15 15 15 15 14 14 14 14 14 14 14 14 15 15 14 14
16 15 14 14 14 14 14 14 14 14 13 13 14 14 14 14 15 15 15 15 15 15 16 15 15 15 15 16 16 15 15 15 15 15 15 15 15 14
17 17 16 16 16 15 15 15 15 15 15 14 14 15 15 16 16 16 16 16 16 16 16 16 16 16 16 16 17 16 16 16 16 16 16 16 16 15
18 18 17 17 17 17 17 17 17 17 16 16 16 16 16 17 17 17 18 17 17 17 17 17 17 17 17 17 18 17 17 17 17 17 16 16 16 16
19 19 19 19 18 18 18 18 18 18 18 18 18 18 18 19 18 18 18 17 18 18 19 19 18 18 18 18 18 18 17 17 17 17 17 17 17 17
20 20 20 21 20 20 20 20 19 19 19 19 19 19 19 20 19 19 19 19 19 19 20 20 20 19 19 19 19 19 19 19 18 18 18 18 18 17
22 22 22 22 22 22 22 21 21 21 21 21 21 20 20 21 20 20 20 20 21 21 20 20 20 20 20 20 20 20 20 19 19 18 18 18 17 17
23 23 23 23 24 24 22 22 22 22 23 22 22 22 22 22 21 21 21 21 21 21 20 20 20 20 21 21 21 20 20 19 19 19 18 18 18 18
24 24 25 25 25 25 24 23 23 23 24 24 23 23 23 22 22 22 22 22 22 21 21 22 22 22 22 22 22 22 21 20 20 20 19 19 18 18
25 25 26 26 26 26 26 25 24 24 25 25 24 24 24 23 23 23 23 23 23 23 22 23 22 22 22 22 23 22 21 21 21 20 20 19 19 19
26 26 27 27 26 26 26 25 25 25 25 26 26 25 25 24 24 24 24 24 24 24 24 24 24 24 23 23 23 23 22 22 21 21 20 20 20 19
27 27 27 27 26 26 26 26 26 26 26 26 26 26 25 25 25 25 25 25 25 25 25 25 24 25 24 24 23 23 22 22 22 21 21 21 21 21
26 26 27 27 27 27 27 27 27 27 27 27 27 26 26 26 26 27 27 27 26 26 26 25 25 25 25 25 24 23 23 23 23 23 22 21 21 22
26 26 26 26 27 27 27 28 28 28 28 27 27 27 27 27 27 27 27 27 27 27 26 26 26 26 26 26 25 24 24 24 24 24 23 23 23 23
26 26 27 28 28 28 28 28 28 28 28 28 28 28 28 28 28 28 27 27 27 27 27 27 27 27 27 27 26 25 24 24 24 24 24 24 24 24
27 27 28 28 28 28 28 28 28 28 28 28 28 28 28 28 28 28 27 27 26 26 26 26 27 27 27 27 27 26 25 25 25 25 25 25 25 25
28 28 28 28 28 28 28 29 29 28 28 28 27 28 28 28 28 28 27 26 26 26 27 27 27 28 28 27 26 27 26 26 26 26 26 26 26 26
29 29 29 29 29 28 28 29 29 29 29 29 28 28 27 27 27 28 28 28 27 27 27 27 27 28 27 27 27 27 28 27 27 27 26 26 26 27
30 30 30 30 29 29 30 30 30 30 30 30 29 28 28 28 28 28 28 29 28 28 28 28 28 28 29 29 28 28 28 28 28 28 28 28 28 28
31 31 31 31 31 31 31 31 31 31 31 31 30 29 29 29 29 30 30 29 29 30 30 30 29 29 29 29 29 29 29 29 29 29 30 30 30 29
32 32 32 32 32 32 32 31 31 31 31 31 31 30 30 30 30 31 31 31 31 31 31 30 30 29 29 29 29 29 29 29 29 29 29 30 31 31
Wind_Direction
288 288 289 291 292 294 294 292 292 292 292 292 296 296 295 298 300 301 301 301 304 304 304 305 306 307 305 302 296 292 292 293 293 291 289 287 290 289
286 288 289 289 290 292 292 292 291 291 292 290 290 292 294 296 299 301 301 301 304 305 304 303 305 305 303 302 301 296 296 296 296 295 291 290 291 291
285 286 287 288 288 288 289 291 293 292 292 290 289 289 291 293 296 299 300 299 301 302 303 305 304 304 305 304 302 299 298 299 298 297 298 297 294 288
282 283 284 286 288 287 287 288 291 292 291 290 291 290 290 292 294 297 300 299 300 300 302 304 303 301 301 302 301 298 296 297 297 295 295 296 296 290
278 278 279 282 285 286 286 287 288 289 289 289 290 291 292 292 293 296 298 300 300 299 301 301 300 298 299 300 299 295 295 296 295 295 296 295 295 292
276 275 276 278 282 284 285 285 285 285 285 287 287 288 289 291 293 294 294 296 296 297 298 298 297 297 298 299 298 295 293 294 294 292 292 292 292 292
275 274 273 274 278 281 284 285 285 283 283 284 286 288 288 289 291 293 293 293 293 294 295 295 294 294 296 297 298 297 293 293 293 291 289 290 291 292
274 273 273 273 276 277 279 281 282 283 284 284 284 287 288 288 288 290 291 292 293 291 291 292 291 291 293 295 297 296 294 293 292 291 288 288 288 289
273 273 273 273 274 275 277 278 280 281 283 284 285 285 286 286 287 289 290 291 293 291 290 289 289 290 293 295 295 296 296 292 290 290 290 289 288 291
272 272 272 272 272 272 273 275 276 278 280 282 283 284 284 285 285 287 288 289 290 290 290 289 288 289 291 292 293 295 295 292 290 289 289 289 289 288
271 271 272 272 271 270 271 273 274 277 279 281 281 282 283 283 284 285 286 287 289 289 290 289 287 287 289 290 291 292 292 291 289 288 286 285 285 286
271 271 272 272 271 271 271 272 274 276 278 279 280 281 283 283 283 284 285 286 287 288 287 286 286 286 287 288 290 290 290 289 287 285 282 281 281 283
272 272 272 272 271 272 272 271 273 276 277 277 278 278 280 283 284 284 285 286 287 288 285 284 285 286 287 288 288 288 288 286 285 283 279 279 278 279
272 272 271 271 271 272 272 272 274 276 276 276 276 276 277 280 282 284 285 286 287 287 284 283 283 285 286 287 287 285 285 285 284 282 278 277 278 278
272 272 271 272 272 272 272 272 272 274 274 274 274 274 275 277 279 281 284 284 286 286 283 282 282 283 285 285 285 283 283 283 282 280 278 278 278 278
272 273 273 274 274 274 274 273 272 274 274 273 272 272 274 276 278 280 282 282 283 284 281 281 281 282 283 284 283 282 283 283 281 278 276 277 279 279
274 275 275 275 276 276 276 275 274 274 274 273 271 271 273 275 276 278 280 282 282 282 282 281 281 281 282 283 283 282 283 283 282 279 277 277 278 280
275 275 276 276 276 275 275 274 273 273 273 273 272 271 273 275 276 276 277 280 281 282 283 283 280 280 280 281 281 282 283 283 282 280 278 277 278 279
275 275 276 276 276 275 274 274 273 273 274 274 274 273 274 275 276 275 276 276 278 281 283 283 282 280 279 279 279 280 281 282 281 281 280 278 278 278
276 275 276 276 276 275 275 274 272 272 272 273 275 274 275 276 276 275 275 275 278 282 284 283 282 281 280 279 278 278 280 282 281 280 280 279 279 278
276 275 275 275 275 275 274 273 272 271 271 272 274 274 274 275 275 275 276 278 280 281 282 283 282 281 279 277 277 277 279 281 280 279 278 278 279 280
275 275 274 275 275 274 274 273 272 271 271 271 272 273 273 274 275 275 277 279 279 280 281 282 281 280 278 277 277 276 277 279 279 279 279 278 279 280
275 275 275 275 275 274 274 273 272 270 269 269 270 271 272 273 275 276 277 278 279 279 280 280 280 280 279 277 277 276 276 278 279 279 279 278 280 280
Height
5808 5807 5807 5806 5806 5805 5805 5805 5805 5804 5804 5803 5803 5803 5802 5802 5801 5801 5800 5799 5798 5797 5796 5795 5793 5792 5790 5788 5787 5786 5785 5783 5782 5781 5780 5779 5778 5776
5805 5804 5804 5803 5803 5802 5802 5801 5801 5801 5801 5800 5800 5800 5799 5799 5798 5797 5797 5795 5794 5793 5792 5791 5789 5788 5786 5785 5783 5782 5781 5780 5779 5777 5776 5775 5773 5772
5801 5801 5800 5800 5800 5799 5799 5798 5798 5797 5797 5797 5796 5796 5796 5795 5794 5794 5793 5792 5791 5789 5788 5787 5785 5784 5782 5781 5779 5778 5777 5776 5775 5773 5772 5771 5769 5768
5796 5796 5796 5796 5796 5796 5795 5795 5794 5794 5793 5793 5793 5792 5792 5791 5790 5790 5789 5788 5786 5785 5784 5783 5781 5780 5778 5777 5775 5774 5773 5772 5770 5769 5768 5766 5765 5763
5792 5792 5792 5792 5792 5792 5791 5791 5790 5789 5789 5789 5789 5788 5787 5787 5786 5785 5784 5783 5782 5781 5780 5778 5777 5776 5774 5772 5771 5769 5768 5767 5766 5764 5763 5761 5760 5759
5786 5787 5787 5787 5787 5787 5786 5786 5785 5785 5785 5784 5784 5783 5783 5782 5781 5780 5779 5778 5777 5776 5775 5773 5772 5771 5769 5768 5766 5764 5763 5762 5760 5759 5758 5756 5755 5754
5780 5781 5781 5781 5781 5781 5781 5780 5780 5780 5779 5779 5779 5778 5778 5777 5776 5775 5774 5773 5772 5771 5770 5768 5767 5766 5764 5763 5761 5759 5757 5756 5755 5753 5752 5751 5750 5749
5775 5775 5775 5775 5775 5775 5775 5775 5775 5774 5774 5774 5773 5773 5772 5771 5770 5770 5769 5768 5767 5766 5764 5763 5761 5760 5759 5757 5755 5753 5752 5750 5749 5748 5747 5746 5744 5743
5768 5768 5768 5769 5769 5769 5769 5768 5768 5768 5768 5768 5767 5766 5766 5765 5764 5763 5762 5761 5760 5759 5758 5757 5755 5754 5752 5751 5749 5747 5746 5744 5743 5742 5741 5740 5739 5738
5761 5761 5762 5762 5762 5762 5762 5762 5762 5761 5761 5761 5760 5760 5759 5758 5758 5757 5756 5755 5753 5752 5751 5750 5749 5748 5746 5745 5743 5741 5739 5738 5737 5736 5735 5734 5733 5732
5754 5754 5754 5754 5754 5754 5754 5754 5754 5754 5754 5753 5753 5752 5752 5751 5750 5750 5749 5748 5747 5745 5744 5743 5742 5741 5740 5738 5736 5735 5733 5731 5730 5729 5729 5728 5728 5727
5746 5746 5746 5746 5746 5746 5746 5747 5747 5747 5746 5746 5745 5745 5744 5744 5743 5742 5742 5741 5740 5739 5737 5736 5735 5734 5734 5732 5730 5728 5726 5725 5724 5723 5722 5722 5721 5721
5738 5738 5738 5738 5738 5738 5738 5738 5738 5738 5738 5738 5737 5737 5737 5736 5735 5734 5734 5733 5732 5731 5730 5728 5727 5726 5725 5725 5723 5721 5719 5718 5717 5716 5715 5715 5715 5714
5729 5729 5729 5729 5729 5729 5730 5730 5730 5730 5729 5729 5729 5729 5729 5728 5728 5727 5726 5725 5724 5723 5721 5720 5719 5718 5717 5716 5716 5714 5712 5711 5710 5709 5708 5708 5707 5707
5720 5721 5721 5721 5721 5721 5721 5721 5721 5721 5720 5720 5720 5721 5721 5720 5720 5719 5718 5717 5716 5714 5713 5712 5711 5710 5709 5708 5707 5706 5705 5704 5702 5702 5701 5700 5700 5700
5712 5713 5713 5713 5713 5712 5712 5712 5712 5712 5712 5712 5711 5712 5712 5711 5711 5710 5709 5708 5708 5706 5705 5703 5702 5702 5701 5700 5699 5698 5697 5696 5695 5694 5694 5693 5693 5692
5704 5704 5704 5704 5704 5704 5704 5703 5703 5703 5702 5702 5702 5703 5703 5703 5702 5701 5701 5700 5699 5698 5697 5696 5694 5693 5692 5691 5690 5690 5689 5688 5687 5686 5686 5686 5685 5684
5696 5696 5696 5696 5696 5695 5695 5695 5694 5694 5694 5693 5693 5693 5693 5693 5693 5692 5692 5691 5690 5689 5688 5687 5686 5685 5684 5683 5682 5681 5681 5680 5679 5678 5677 5677 5677 5676
5687 5687 5687 5687 5687 5686 5686 5685 5685 5685 5685 5684 5684 5684 5684 5684 5683 5683 5682 5682 5682 5681 5679 5678 5677 5675 5675 5675 5674 5672 5672 5671 5670 5669 5669 5668 5668 5667
5678 5678 5678 5677 5677 5677 5677 5676 5676 5676 5676 5676 5675 5675 5675 5675 5674 5674 5673 5673 5673 5671 5670 5669 5668 5667 5666 5666 5665 5664 5662 5662 5661 5661 5660 5659 5658 5658
5669 5669 5668 5668 5668 5668 5667 5667 5667 5667 5667 5667 5666 5666 5666 5666 5665 5665 5665 5664 5663 5662 5662 5661 5659 5658 5657 5656 5656 5655 5654 5652 5652 5651 5650 5650 5649 5649
5659 5659 5658 5658 5658 5658 5657 5657 5657 5657 5657 5657 5657 5657 5657 5656 5656 5656 5655 5655 5654 5653 5652 5651 5649 5648 5647 5647 5646 5646 5645 5644 5643 5642 5641 5640 5639 5639
5649 5648 5648 5648 5648 5647 5647 5646 5646 5646 5646 5647 5647 5647 5647 5647 5646 5646 5645 5645 5644 5643 5642 5641 5640 5639 5638 5637 5636 5636 5635 5634 5633 5633 5632 5630 5630 5629